Location: High Point State Park
(41.2941°N, 74.6906°W)
Time: 23:49:06
(UTC-04:00)

HST - Visible Passes

Search period start: 16 April 2014 00:00
Search period end: 26 April 2014 00:00
Orbit: 549 x 553 km, 28.5° (Epoch: 16 April)

Date Brightness Start Highest point End Pass type
(mag) Time Alt. Az. Time Alt. Az. Time Alt. Az.
17 Apr 3.0 21:23:02 10° SSW 21:23:59 12° SSW 21:23:59 12° SSW visible
18 Apr 2.9 21:16:19 10° SSW 21:18:05 14° S 21:18:05 14° S visible
19 Apr 2.8 21:09:42 10° SSW 21:11:55 14° S 21:12:06 14° S visible
20 Apr 2.8 21:03:11 10° SW 21:05:18 14° S 21:06:04 13° S visible
21 Apr 2.9 20:56:47 10° SW 20:58:41 13° S 20:59:59 11° SSE visible
22 Apr 3.1 20:50:33 10° SSW 20:52:04 12° S 20:53:34 10° SSE visible
23 Apr 3.2 20:44:49 10° SSW 20:45:25 10° SSW 20:46:02 10° S visible
